Regional Weather Roundup
Issued by NWS

Home | Current Version | Previous Version | Text Only | Print | Product List | Glossary On
Versions: 1 2 3 4 5 6 7 8 9 10 11 12 13 14 15 16 17 18 19 20 21 22 23 24 25 26 27
000
ASUS44 KJAN 181710
RWRMS

MISSISSIPPI HOURLY WEATHER ROUNDUP
NATIONAL WEATHER SERVICE JACKSON MS
1100 AM CST MON DEC 18 2017

NOTE: "FAIR: INDICATES FEW OR NO CLOUDS BELOW 12,000 FEET WITH NO
SIGNIFICANT WEATHER AND/OR OBSTRUCTIONS TO VISIBILITY.

MSZ001>002-007>008-010>013-018>021-025>028-034>036-181800-
NORTHWEST MISSISSIPPI

CITY           SKY/WX    TMP DP  RH WIND       PRES   REMARKS
BATESVILLE     CLOUDY    46  44  93 SW3       30.24F FOG
CLARKSDALE     CLOUDY    45  45 100 CALM      30.25S
CLEVELAND      CLOUDY    45  45 100 CALM      30.25F
GREENWOOD      CLOUDY    51  50  96 CALM      30.25S
GREENVILLE     CLOUDY    46  44  93 NE3       30.24F
OLIVE BRANCH   CLOUDY    43  43 100 SW5       30.23R FOG
TUNICA           N/A    N/A N/A N/A CALM      30.25S
WINONA         CLOUDY    51  51 100 SW5       30.24S
$$

MSZ003>006-009-014>017-022>024-029>033-037>039-181800-
NORTHEAST MISSISSIPPI

CITY           SKY/WX    TMP DP  RH WIND       PRES   REMARKS
ABERDEEN       CLOUDY    55  55 100 W6        30.24F
COLUMBUS AFB   CLOUDY    55  55 100 N3        30.22S
CORINTH        CLOUDY    52  48  87 W7        30.21S
GOLDN TRIANGLE CLOUDY    57  54  89 VRB3      30.23F
STARKVILLE     CLOUDY    55  54  94 W3        30.24F
TUPELO         CLOUDY    54  49  83 SW7       30.22F
$$

MSZ040-058-181800-
CENTRAL MISSISSIPPI

CITY           SKY/WX    TMP DP  RH WIND       PRES   REMARKS
JACKSON INTL   CLOUDY    63  58  83 CALM      30.21F
JACKSON HAWKNS CLOUDY    61  58  90 CALM      30.23S
MADISON        CLOUDY    57  55  94 CALM      30.22F
MERIDIAN KEY   LGT RAIN  57  55  93 CALM      30.24F
MERIDIAN NAS   CLOUDY    56  54  93 SE3       30.24F
RAYMOND        CLOUDY    61  57  88 CALM      30.23S
VICKSBURG VKS  PTSUNNY   57  55  94 NW6       30.27S
$$

MSZ059>079-181800-
SOUTH MISSISSIPPI

CITY           SKY/WX    TMP DP  RH WIND       PRES   REMARKS
HATTIESBURG    LGT RAIN  60  60 100 CALM      30.25F FOG
LAUREL         CLOUDY    56  56 100 CALM      30.26S
MCCOMB         CLOUDY    65  62  90 N5        30.24R
NATCHEZ        CLOUDY    60  58  92 N6        30.24F
PINE BELT      LGT RAIN  58  57  97 SE6       30.26R
$$

MSZ080>082-181800-
COASTAL MISSISSIPPI

CITY           SKY/WX    TMP DP  RH WIND       PRES   REMARKS
BAY ST LOUIS   CLOUDY    68  66  94 CALM      30.22S FOG
BILOXI         CLOUDY    68  66  94 NE3       30.22R FOG
PASCAGOULA     CLOUDY    69  66  90 CALM      30.23S FOG
GULFPORT       CLOUDY    68  67  96 E3        30.22S FOG
$$

LAZ007>009-015>016-023>026-181800-
NORTHEAST LOUISIANA

CITY           SKY/WX    TMP DP  RH WIND       PRES   REMARKS
BASTROP        CLOUDY    49  49  99 CALM      30.25F
TALLULAH/VBURG CLOUDY    55  54  96 NW5       30.27R
VIDALIA        CLOUDY   N/A N/A N/A MISG      30.24S
$$




USA.gov is the U.S. government's official web portal to all federal, state and local government web resources and services.